Weather History for Decatur, TX

Change the Weather History Date:

Thursday, February 13, 2014

  Actual Average (KDTO) Record (KDTO)
Temperature  
Mean Temperature 50 °F -  
Max Temperature 68 °F 57 °F 75 °F (2005)
Min Temperature 32 °F 36 °F 21 °F (2008)
Degree Days  
Heating Degree Days 15    
Moisture  
Dew Point 32 °F    
Average Humidity 57    
Maximum Humidity 87    
Minimum Humidity 27    
Precipitation  
Precipitation 0.00 in - - ()
Sea Level Pressure  
Sea Level Pressure 29.94 in    
Wind  
Wind Speed 5 mph (SSE)    
Max Wind Speed 14 mph    
Max Gust Speed 17 mph    
Visibility 10 miles    
Events      
Averages and records for this station are not official NWS values.
T = Trace of Precipitation, MM = Missing Value Source: NWS Daily Summary

Daily Weather History Graph

Daily Weather History Graph

Search for Another Location

Airport:

Trip Planner

Search our weather history database for the weather conditions in past years. The results will help you decide how hot, cold, wet, or windy it might be!

Date:

Astronomy

Feb. 13, 2014 Rise Set
Actual Time 7:15 AM CST 6:13 PM CST
Civil Twilight 6:50 AM CST 6:38 PM CST
Nautical Twilight 6:21 AM CST 7:08 PM CST
Astronomical Twilight 5:52 AM CST 7:36 PM CST
Moon 5:22 PM CST (2/13) 6:09 AM CST (2/13)
Length of Visible Light 11h 48m
Length of Day
10h 57m
Waxing Gibbous, 99% of the Moon is Illuminated
Feb 13
Waxing Gibbous
Feb 14
Full
Feb 22
Last Quarter
Mar 1
New
Mar 8
First Quarter

Hourly Weather History & Observations

Time (CST) Temp. Windchill Dew Point Humidity Pressure Visibility Wind Dir Wind Speed Gust Speed Precip Events Conditions
12:15 AM 37.6 °F - 29.1 °F 72% 30.05 in 10.0 mi Calm Calm - N/A   Clear
12:35 AM 36.9 °F 32.2 °F 29.1 °F 74% 30.04 in 10.0 mi WSW 5.8 mph - N/A   Clear
12:55 AM 36.9 °F 33.1 °F 29.1 °F 74% 30.05 in 10.0 mi West 4.6 mph - N/A   Clear
1:15 AM 38.3 °F - 29.3 °F 70% 30.04 in 10.0 mi Calm Calm - N/A   Clear
1:35 AM 38.3 °F - 29.3 °F 70% 30.04 in 10.0 mi Calm Calm - N/A   Clear
1:55 AM 38.3 °F 35.9 °F 29.1 °F 70% 30.04 in 10.0 mi NNE 3.5 mph - N/A   Clear
2:15 AM 35.2 °F 32.4 °F 28.4 °F 76% 30.03 in 10.0 mi NE 3.5 mph - N/A   Clear
2:35 AM 36.0 °F 32.1 °F 28.6 °F 75% 30.02 in 10.0 mi ENE 4.6 mph - N/A   Clear
2:55 AM 33.1 °F 28.7 °F 28.4 °F 83% 30.00 in 10.0 mi East 4.6 mph - N/A   Clear
3:15 AM 32.9 °F 27.5 °F 28.0 °F 82% 30.00 in 10.0 mi East 5.8 mph - N/A   Clear
3:35 AM 32.2 °F 26.7 °F 28.2 °F 85% 29.99 in 10.0 mi ESE 5.8 mph - N/A   Clear
3:55 AM 33.3 °F 27.1 °F 29.3 °F 85% 29.97 in 10.0 mi ESE 6.9 mph - N/A   Clear
4:15 AM 34.7 °F 30.6 °F 29.5 °F 81% 29.97 in 10.0 mi ESE 4.6 mph - N/A   Clear
4:35 AM 34.0 °F 28.8 °F 29.1 °F 82% 29.98 in 10.0 mi ESE 5.8 mph - N/A   Clear
4:55 AM 34.3 °F 29.2 °F 28.9 °F 81% 29.97 in 10.0 mi ESE 5.8 mph - N/A   Clear
5:15 AM 32.9 °F 27.5 °F 29.1 °F 86% 29.97 in 7.0 mi East 5.8 mph - N/A   Clear
5:35 AM 33.1 °F 27.7 °F 29.3 °F 86% 29.97 in 7.0 mi SE 5.8 mph - N/A   Clear
5:55 AM 32.9 °F 26.7 °F 28.8 °F 85% 29.98 in 7.0 mi SE 6.9 mph - N/A   Clear
6:15 AM 32.9 °F 25.9 °F 28.8 °F 85% 29.99 in 7.0 mi SSE 8.1 mph - N/A   Clear
6:35 AM 33.8 °F 29.6 °F 29.1 °F 83% 30.00 in 10.0 mi SSE 4.6 mph - N/A   Clear
6:55 AM 32.4 °F 25.3 °F 28.9 °F 87% 29.99 in 7.0 mi SSE 8.1 mph - N/A   Clear
7:15 AM 32.9 °F 27.5 °F 29.1 °F 86% 30.00 in 10.0 mi SSE 5.8 mph - N/A   Clear
7:35 AM 33.3 °F 26.4 °F 29.3 °F 85% 29.99 in 7.0 mi SSE 8.1 mph - N/A   Clear
7:55 AM 34.0 °F 28.0 °F 29.3 °F 83% 29.99 in 7.0 mi SE 6.9 mph - N/A   Clear
8:15 AM 35.6 °F 29.9 °F 29.8 °F 80% 30.00 in 7.0 mi SSE 6.9 mph - N/A   Clear
8:35 AM 37.2 °F 31.9 °F 30.7 °F 77% 29.99 in 10.0 mi SSE 6.9 mph - N/A   Clear
8:55 AM 39.6 °F 34.7 °F 31.6 °F 73% 30.01 in 10.0 mi SSE 6.9 mph - N/A   Clear
9:15 AM 42.1 °F 37.7 °F 32.0 °F 67% 30.01 in 10.0 mi South 6.9 mph - N/A   Clear
9:35 AM 43.7 °F 39.7 °F 32.0 °F 63% 30.02 in 10.0 mi South 6.9 mph - N/A   Clear
9:55 AM 46.4 °F 42.4 °F 32.7 °F 59% 30.01 in 10.0 mi South 8.1 mph - N/A   Clear
10:15 AM 48.2 °F - 33.1 °F 56% 30.00 in 10.0 mi South 5.8 mph - N/A   Clear
10:35 AM 49.1 °F - 33.1 °F 54% 29.99 in 10.0 mi South 8.1 mph - N/A   Clear
10:55 AM 50.0 °F - 33.8 °F 54% 30.00 in 10.0 mi South 6.9 mph - N/A   Clear
11:15 AM 52.2 °F - 34.9 °F 52% 30.00 in 10.0 mi SSW 5.8 mph - N/A   Clear
11:35 AM 54.0 °F - 35.1 °F 49% 29.99 in 10.0 mi SSE 8.1 mph - N/A   Clear
11:55 AM 55.6 °F - 36.0 °F 48% 29.97 in 10.0 mi South 6.9 mph - N/A   Clear
12:15 PM 58.3 °F - 36.3 °F 44% 29.96 in 10.0 mi South 6.9 mph - N/A   Clear
12:35 PM 61.0 °F - 34.3 °F 37% 29.95 in 10.0 mi South 8.1 mph - N/A   Clear
12:55 PM 61.7 °F - 32.7 °F 34% 29.93 in 10.0 mi South 11.5 mph - N/A   Clear
1:35 PM 64.2 °F - 32.4 °F 30% 29.90 in 10.0 mi South 12.7 mph 17.3 mph N/A   Clear
1:55 PM 65.7 °F - 32.4 °F 29% 29.89 in 10.0 mi South 11.5 mph - N/A   Clear
2:15 PM 66.2 °F - 32.5 °F 29% 29.88 in 10.0 mi SW 9.2 mph - N/A   Clear
2:35 PM 66.0 °F - 32.9 °F 29% 29.87 in 10.0 mi WSW 13.8 mph - N/A   Clear
2:55 PM 66.9 °F - 32.9 °F 28% 29.87 in 10.0 mi SW 8.1 mph - N/A   Clear
3:15 PM 66.4 °F - 32.4 °F 28% 29.87 in 10.0 mi Calm Calm - N/A   Clear
3:35 PM 66.6 °F - 32.4 °F 28% 29.87 in 10.0 mi West 5.8 mph - N/A   Clear
3:55 PM 67.1 °F - 33.1 °F 28% 29.86 in 10.0 mi SSW 5.8 mph - N/A   Clear
4:15 PM 67.3 °F - 33.4 °F 29% 29.86 in 10.0 mi SW 6.9 mph - N/A   Clear
4:35 PM 68.0 °F - 32.7 °F 27% 29.85 in 10.0 mi SW 8.1 mph - N/A   Clear
4:55 PM 67.3 °F - 32.7 °F 28% 29.85 in 10.0 mi SSW 5.8 mph - N/A   Clear
5:15 PM 67.3 °F - 32.9 °F 28% 29.85 in 10.0 mi South 4.6 mph - N/A   Clear
5:35 PM 66.6 °F - 33.4 °F 29% 29.85 in 10.0 mi SSW 4.6 mph - N/A   Clear
5:55 PM 65.7 °F - 33.1 °F 30% 29.85 in 10.0 mi Calm Calm - N/A   Clear
6:15 PM 65.3 °F - 32.9 °F 30% 29.86 in 10.0 mi Calm Calm - N/A   Clear
6:35 PM 63.1 °F - 33.1 °F 33% 29.85 in 10.0 mi SE 4.6 mph - N/A   Clear
6:55 PM 60.3 °F - 34.5 °F 38% 29.85 in 10.0 mi ESE 4.6 mph - N/A   Clear
7:15 PM 57.6 °F - 35.6 °F 44% 29.85 in 10.0 mi ESE 5.8 mph - N/A   Clear
7:35 PM 57.4 °F - 35.6 °F 44% 29.85 in 10.0 mi SE 5.8 mph - N/A   Clear
7:55 PM 55.4 °F - 35.6 °F 47% 29.86 in 10.0 mi SSE 9.2 mph - N/A   Clear
8:15 PM 56.8 °F - 35.6 °F 45% 29.85 in 10.0 mi SSE 11.5 mph - N/A   Clear
8:35 PM 56.5 °F - 36.0 °F 46% 29.87 in 10.0 mi South 11.5 mph - N/A   Clear
8:55 PM 55.9 °F - 36.3 °F 48% 29.87 in 10.0 mi SSE 9.2 mph - N/A   Clear
9:15 PM 54.5 °F - 36.3 °F 50% 29.88 in 10.0 mi SSE 10.4 mph - N/A   Clear
9:35 PM 53.6 °F - 36.5 °F 52% 29.89 in 10.0 mi South 9.2 mph - N/A   Clear
9:55 PM 51.8 °F - 36.5 °F 56% 29.87 in 10.0 mi SSE 6.9 mph - N/A   Clear
10:15 PM 51.4 °F - 36.5 °F 57% 29.87 in 7.0 mi SE 6.9 mph - N/A   Clear
10:35 PM 48.6 °F - 36.5 °F 63% 29.87 in 10.0 mi Calm Calm - N/A   Clear
10:55 PM 50.4 °F - 36.5 °F 59% 29.87 in 10.0 mi SSE 4.6 mph - N/A   Clear
11:15 PM 48.2 °F - 36.1 °F 63% 29.85 in 10.0 mi Calm Calm - N/A   Clear
11:35 PM 48.7 °F - 36.9 °F 64% 29.85 in 10.0 mi South 6.9 mph - N/A   Clear
11:55 PM 49.3 °F - 36.9 °F 62% 29.84 in 10.0 mi South 5.8 mph - N/A   Clear